AO-07 1 07530U 74089B 14100.85955032 -.00000042 00000-0 99965-5 0 9367 2 07530 101.4666 084.9224 0012378 067.5592 350.5090 12.53604277803083 FO-29 1 24278U 96046B 14099.68492648 .00000030 00000-0 62963-4 0 3467 2 24278 098.5161 122.9882 0351549 115.3583 004.8388 13.53019831871405 SO-33 1 25509U 98061B 14100.46934821 .00001109 00000-0 20436-3 0 7265 2 25509 031.4333 184.0648 0350046 241.1232 218.6057 14.29461061807451 RS-22 1 27939U 03042A 14100.48622225 .00001535 00000-0 29399-3 0 3854 2 27939 097.8059 278.0141 0012882 327.3357 032.7044 14.65082136562812 VO-52 1 28650U 05017B 14100.11554674 .00002669 00000-0 31559-3 0 7057 2 28650 097.5608 108.4957 0025848 026.4300 333.8228 14.85197281483127 HO-68 1 36122U 09072B 14100.76839163 -.00000043 00000-0 00000 0 0 4869 2 36122 100.2572 154.6807 0007546 034.5931 325.5670 13.16314145207568 AO-73 1 39444U 13066AE 14100.60030369 .00004319 00000-0 58504-3 0 1122 2 39444 097.7763 173.5483 0064283 102.6738 258.1657 14.78006749 19488 UO-11 1 14781U 84021B 14100.83177528 .00000996 00000-0 13371-3 0 4608 2 14781 097.8589 162.2510 0009278 048.9183 311.2830 14.81479569617999 AO-16 1 20439U 90005D 14099.85407662 .00000242 00000-0 10545-3 0 9966 2 20439 098.5033 038.4923 0010765 008.2805 061.9537 14.32328002264704 LO-19 1 20442U 90005G 14100.81387499 .00000231 00000-0 10082-3 0 9340 2 20442 098.4741 040.2927 0011423 353.9680 006.1365 14.32532206265031 AO-27 1 22825U 93061C 14100.79698983 .00000194 00000-0 92830-4 0 6394 2 22825 098.6568 047.2590 0009436 131.6732 291.5699 14.29695567 71154 IO-26 1 22826U 93061D 14100.44430571 .00000202 00000-0 95534-4 0 3968 2 22826 098.6508 047.1390 0010056 126.1497 234.0617 14.29993042 71233 GO-32 1 25397U 98043D 14099.83621378 .00000088 00000-0 57168-4 0 3183 2 25397 098.4617 060.4009 0002278 127.7449 289.5136 14.23429197818143 NO-44 1 26931U 01043C 14100.48714301 .00000208 00000-0 11225-3 0 5746 2 26931 067.0526 213.0287 0005613 279.6968 080.3499 14.30087794653925 SO-50 1 27607U 02058C 14100.36148843 .00001773 00000-0 28892-3 0 3567 2 27607 064.5568 079.0836 0039550 033.7790 326.5819 14.73616265607482 CO-55 1 27844U 03031E 14100.64153104 .00000409 00000-0 20676-3 0 8976 2 27844 098.6990 110.3859 0010987 110.0944 013.8950 14.21458975558986 CO-57 1 27848U 03031J 14100.84252553 .00000340 00000-0 17618-3 0 8392 2 27848 098.7083 110.2580 0010882 115.4729 006.9924 14.21152615558939 AO-51 1 28375U 04025K 14099.82866730 .00000248 00000-0 86581-4 0 8129 2 28375 098.2444 049.0914 0083013 198.1229 161.6997 14.41346342514058 CP3 1 31129U 07012N 14099.79967718 .00001103 00000-0 25303-3 0 7172 2 31129 097.9283 081.2781 0097854 223.1619 256.4376 14.54531008370093 CO-65 1 32785U 08021C 14100.39902220 .00002099 00000-0 25149-3 0 9173 2 32785 097.7073 153.9033 0014822 056.9961 065.2497 14.85048306321960 PRISM 1 33493U 09002B 14100.75367954 .00007306 00000-0 78385-3 0 8118 2 33493 098.2452 273.5789 0016712 305.6437 054.3197 14.88832414282149 SOHLA-1 1 33496U 09002E 14100.42374649 .00000758 00000-0 13266-3 0 3200 2 33496 098.1608 221.2283 0007712 100.5405 299.6289 14.70723847279557 TISAT-1 1 36799U 10035E 14100.79256115 .00005375 00000-0 63172-3 0 730 2 36799 098.0162 192.3036 0014343 175.5303 184.5996 14.85237621202718 STUDSAT 1 36801U 10035G 14100.45874242 .00016334 00000-0 14960-2 0 8009 2 36801 098.0336 198.7420 0010697 156.8946 333.6457 14.94975893203007 ALMASAT-1 1 38078U 12006B 14099.82134528 .00053890 00000-0 11917-2 0 9919 2 38078 069.4695 223.5891 0612137 122.7099 325.8709 14.44895859111742 XATCOBEO 1 38082U 12006F 14100.53516403 .00182342 10354-4 17989-2 0 1123 2 38082 069.4486 143.1902 0313165 077.3717 069.0654 15.23300716113970 CUBEBUG-1 1 39153U 13018D 14100.70812105 .00002841 00000-0 40502-3 0 174 2 39153 098.0443 181.1463 0017261 205.1698 154.8669 14.77477805 51592 ESTCUBE-1 1 39161U 13021C 14100.76368720 .00002188 00000-0 37456-3 0 9944 2 39161 098.0987 182.1561 0008624 246.8826 113.1461 14.69812248 49693 MET-3/5 1 21655U 91056A 14110.46165305 -.00000003 00000-0 -41293-4 0 5643 2 21655 082.5591 037.2015 0014461 080.7151 279.6728 13.17055791 90398 MET-2/21 1 22782U 93055A 14100.83128764 .00000085 00000-0 63208-4 0 243 2 22782 082.5512 226.7356 0023519 095.3323 014.7607 13.83733319 40800 OKEAN-4 1 23317U 94066A 14100.17930336 .00001562 00000-0 17836-3 0 5010 2 23317 082.5362 131.6899 0019321 327.5194 083.2691 14.85351938 53013 NOAA-14 1 23455U 94089A 14100.43366209 .00000110 00000-0 80878-4 0 7139 2 23455 098.7792 185.0683 0008949 227.0428 244.2883 14.13963047994370 NOAA-15 1 25338U 98030A 14100.46503762 .00000254 00000-0 12641-3 0 1439 2 25338 098.7497 094.4673 0010079 351.3545 161.9437 14.25392434827198 RESURS 1 25394U 98043A 14099.80430821 .00000058 00000-0 42814-4 0 6281 2 25394 098.4059 067.0810 0002633 102.3092 316.3590 14.24386848818588 FENGYUN1 1 25730U 99025A 14099.87409443 .00001790 00000-0 10034-2 0 1218 2 25730 098.9073 061.4124 0025840 306.5394 106.6939 14.11755361767886 OKEAN-0 1 25860U 99039A 14100.49205985 .00001097 00000-0 17009-3 0 2191 2 25860 098.0361 064.7915 0000952 107.2237 004.5634 14.75157863792175 NOAA-16 1 26536U 00055A 14100.41330595 .00000100 00000-0 77826-4 0 6338 2 26536 098.9967 160.4596 0010471 023.1591 104.7342 14.13021437698546 NOAA-17 1 27453U 02032A 14100.51469073 .00000239 00000-0 12029-3 0 5390 2 27453 098.3130 103.7942 0011710 019.7944 091.2809 14.24728034613056 NOAA-18 1 28654U 05018A 14100.50960325 .00000290 00000-0 18330-3 0 265 2 28654 099.1426 078.6729 0015428 094.6598 011.7263 14.11989402458015 NOAA-19 1 33591U 09005A 14100.45842275 .00000203 00000-0 13621-3 0 1913 2 33591 098.9399 045.7187 0013183 313.8073 179.4613 14.11687740266434 HUBBLE 1 20580U 90037B 14099.51331999 .00003375 00000-0 21937-3 0 4771 2 20580 028.4696 128.4977 0002871 270.1436 215.0241 15.05131548114364 ISS 1 25544U 98067A 14100.80411512 .00016600 00000-0 29108-3 0 546 2 25544 051.6493 073.5010 0002261 012.2910 058.1808 15.50689026880875 CO-58 1 28895U 05043F 14100.37827051 .00001139 00000-0 23693-3 0 7384 2 28895 097.8407 305.7513 0016733 220.8415 139.1534 14.61756743450341 FALCON 1 30776U 07006E 14100.19656972 .00010718 00000-0 55970-3 0 8408 2 30776 035.4291 174.4154 0000597 095.1547 290.8042 15.15211375390410 MAST 1 31126U 07012K 14099.52459280 .00000722 00000-0 16815-3 0 166 2 31126 097.9090 084.0248 0091915 207.5954 270.9981 14.55165578370409 CAPE1 1 31130U 07012P 14100.44431405 .00000963 00000-0 22324-3 0 231 2 31130 097.9298 081.4684 0098417 222.4534 136.9022 14.54297491369968 COMPASS 1 32787U 08021E 14100.77416626 .00003583 00000-0 40061-3 0 8995 2 32787 097.7098 156.2241 0014739 049.5007 310.7492 14.87472118322162 AAUSAT2 1 32788U 08021F 14100.13725793 .00004640 00000-0 50877-3 0 8850 2 32788 097.7105 156.5129 0014172 050.3003 309.9461 14.88128451322128 DO-64 1 32789U 08021G 14100.47167346 .00009478 00000-0 92745-3 0 9228 2 32789 097.7284 162.7102 0012562 039.2365 089.4507 14.92468096322392 CO-66 1 32791U 08021J 14100.13297833 .00003458 00000-0 39871-3 0 8805 2 32791 097.7090 154.5038 0015450 054.0026 306.2620 14.86215914321943 RS-30 1 32953U 08025A 14100.78275491 .00000010 00000-0 00000 0 0 8186 2 32953 082.5014 243.1143 0018027 303.9845 055.9523 12.43045025266887 METEOR-M 1 35865U 09049A 14100.74318615 .00000013 00000-0 25239-4 0 4275 2 35865 098.5574 150.1762 0002013 314.1571 045.9443 14.21916752236757 RS-38 1 35869U 09049E 14100.74390887 .00000079 00000-0 54747-4 0 3604 2 35869 098.5502 149.9997 0003468 291.6422 179.5343 14.22197858236782 JUGNU 1 37839U 11058B 14096.89170358 .00000558 00000-0 15624-3 0 5957 2 37839 019.9620 327.0344 0019022 279.1458 186.4846 14.12284567128460 SRMSAT 1 37841U 11058D 14100.82127832 .00000480 00000-0 11977-3 0 6006 2 37841 019.9722 321.1898 0011837 264.2850 198.8933 14.10333035128830 RAX-2 1 37853U 11061D 14100.49563045 .00007017 00000-0 49048-3 0 7730 2 37853 101.7166 097.9050 0218907 252.3518 262.8423 14.88548290132588 AUBIESAT 1 37854U 11061E 14099.59362895 .00006669 00000-0 45324-3 0 7543 2 37854 101.7203 098.1997 0217355 252.5062 228.0485 14.89764082132498 HRBE 1 37855U 11061F 14099.94233868 .00007323 00000-0 50220-3 0 7617 2 37855 101.7208 098.1796 0219127 252.5329 159.7664 14.89133094132522 RS-39 1 38051U 11062C 14100.84325529 .00065915 00000-0 10828-2 0 4353 2 38051 051.6294 199.8189 0010014 303.8267 145.0094 15.51725351123628 E-STAR 1 38079U 12006C 14100.63783065 .00092436 47357-5 13031-2 0 8129 2 38079 069.4575 167.8694 0424776 091.9650 007.5958 14.93555089113329 GOLIAT 1 38085U 12006J 14100.70096196 .00085872 44611-5 12553-2 0 9503 2 38085 069.4614 173.3477 0443533 094.7860 270.4071 14.88952735113181 HORYU-2 1 38340U 12025D 14099.86099767 .00003525 00000-0 56573-3 0 8187 2 38340 098.2522 055.9426 0013415 036.4753 323.7360 14.72248472101749 RS-40 1 38735U 12041C 14100.00552184 .00000024 00000-0 10000-3 0 5373 2 38735 082.4779 330.0649 0017795 044.6882 315.5623 12.42558395 77116 PROITERES 1 38756U 12047B 14100.82504101 .00001095 00000-0 17121-3 0 7280 2 38756 098.2286 188.0206 0011836 233.7380 126.2735 14.74834028 85253 BEESAT-3 1 39134U 13015E 14100.20263257 .00011263 00000-0 81043-3 0 5519 2 39134 064.8769 353.6051 0021310 319.8214 040.1261 15.04391663 53437 BEESAT-2 1 39136U 13015G 14099.90861803 .00009938 00000-0 72643-3 0 5394 2 39136 064.8761 354.8185 0021033 319.2757 040.6774 15.03890004 53380 LO-75 1 39382U 13064C 14100.52553263 .00077603 00000-0 21721-2 0 1839 2 39382 040.4960 140.1315 0012001 118.2190 241.9670 15.35565272 21622 ZACUBE-1 1 39417U 13066B 14100.06535390 .00003541 00000-0 48305-3 0 2671 2 39417 097.7824 173.0227 0063867 103.9632 256.8593 14.77846824 20639 TRITON-1 1 39427U 13066M 14099.83295493 .00003301 00000-0 55962-3 0 1198 2 39427 097.7674 169.9988 0120221 107.9450 253.4860 14.65178511 20381 DELFIN3XT 1 39428U 13066N 14099.92954381 .00005369 00000-0 93397-3 0 1232 2 39428 097.7666 169.5587 0131166 108.8389 252.7048 14.62950229 20353 GOMX-1 1 39430U 13066Q 14100.71983600 .00003170 00000-0 60815-3 0 3779 2 39430 097.7629 168.9748 0158077 109.4403 252.3948 14.56624314 20396 MO-76 1 39436U 13066W 14099.84221432 .00023738 00000-0 25494-2 0 1621 2 39436 097.7826 174.5782 0029560 116.5412 243.8774 14.88234105 20702 LO-74 1 39440U 13066AA 14099.86085466 .00003515 00000-0 52554-3 0 1172 2 39440 097.7750 171.7128 0086329 105.0957 255.9797 14.72812037 20527 PUCPSAT-1 1 39442U 13066AC 14099.75076106 .00005290 00000-0 60884-3 0 1147 2 39442 097.7849 174.4069 0036296 109.4994 251.0134 14.85686715 19468 LITSAT-1 1 39568U 98067EM 14100.80357264 .00259257 00000-0 23670-2 0 869 2 39568 051.6475 071.2446 0010622 082.8586 349.3769 15.66431048 6457 LITUANSAT 1 39569U 98067EN 14100.73957795 .00136787 00000-0 16068-2 0 1289 2 39569 051.6479 072.3399 0008578 071.3619 349.0517 15.60460244 6438 SHINAISAT 1 39572U 14009A 14100.53535799 .00055455 00000-0 60306-3 0 614 2 39572 065.0092 276.7910 0013289 279.0741 080.8876 15.63025370 6516 OPUSAT 1 39575U 14009D 14100.87805149 .00123077 00000-0 10273-2 0 694 2 39575 065.0107 274.7652 0007756 289.1074 070.9216 15.69412858 6582 TEIKYOSAT 1 39576U 14009E 14100.55941938 .00066736 00000-0 67224-3 0 582 2 39576 065.0141 276.4120 0009690 301.0884 058.9315 15.64964180 6527 IFT-1 1 39577U 14009F 14100.90129348 .00096498 00000-0 86991-3 0 631 2 39577 065.0091 274.8671 0009259 308.4394 051.5906 15.67609740 6585 CO-77 1 39578U 14009G 14100.87089364 .00261259 00000-0 16195-2 0 616 2 39578 065.0072 274.2032 0009912 280.4280 079.5758 15.75981754 6592 STARS-II 1 39579U 14009H 14100.90953082 .00523516 00000-0 23499-2 0 733 2 39579 065.0057 273.8492 0014280 266.9957 092.9566 15.82392722 6602 /EX